Terug naar catalogus

SL-8 R/B

ActiefLEO
NORAD 9444·ROCKET BODY·🇷🇺 Russia

Gelanceerd Sep 29, 1976 vanaf Plesetsk Cosmodrome

Loading…

Volgende Passages (komende 24 uur)

TLE

VersSource: Space-Track

Epoch: Sep 14, 2026, 12:55 UTC

1  9444U 76098B   26257.53866087  .00000102  00000-0  41145-4 0  9998
2  9444  74.0508 201.6475 0013967 230.2290 129.7635 14.39409797 54056

Volg SL-8 R/B in realtime met AllMySat

Download on the App Store